Weather History for Jackson, MI

Change the Weather History Date:

Friday, March 22, 2013

  Actual Average Record
Temperature  
Mean Temperature 33 °F 38 °F  
Max Temperature 41 °F 48 °F 84 °F (2012)
Min Temperature 24 °F 28 °F 10 °F (1959)
Degree Days  
Heating Degree Days 32 27  
Month to date heating degree days 749 685  
Since 1 July heating degree days 5447 5599  
Cooling Degree Days 0 0  
Month to date cooling degree days 0 0  
Year to date cooling degree days 0 0  
Moisture  
Dew Point 18 °F    
Average Humidity 63    
Maximum Humidity 81    
Minimum Humidity 44    
Precipitation  
Precipitation 0.00 in 0.06 in 0.70 in (1975)
Month to date precipitation 0.61 1.27  
Year to date precipitation 4.96 4.05  
Sea Level Pressure  
Sea Level Pressure 29.99 in    
Wind  
Wind Speed 8 mph (WNW)    
Max Wind Speed 15 mph    
Max Gust Speed 22 mph    
Visibility 10 miles    
Events      
T = Trace of Precipitation, MM = Missing Value Source: NWS Daily Summary

Daily Weather History Graph

Daily Weather History Graph

Search for Another Location

Airport:

Trip Planner

Search our weather history database for the weather conditions in past years. The results will help you decide how hot, cold, wet, or windy it might be!

Date:

Astronomy

Mar. 22, 2013 Rise Set
Actual Time 7:37 AM EDT 7:52 PM EDT
Civil Twilight 7:09 AM EDT 8:20 PM EDT
Nautical Twilight 6:36 AM EDT 8:53 PM EDT
Astronomical Twilight 6:02 AM EDT 9:27 PM EDT
Moon 3:14 PM EDT (3/22) 4:41 AM EDT (3/22)
Length of Visible Light 13h 11m
Length of Day
12h 15m
Waxing Gibbous, 77% of the Moon is Illuminated
Mar 22
Waxing Gibbous
Mar 27
Full
Apr 3
Last Quarter
Apr 10
New
Apr 18
First Quarter

Hourly Weather History & Observations

Time (EDT) Temp. Windchill Dew Point Humidity Pressure Visibility Wind Dir Wind Speed Gust Speed Precip Events Conditions
12:56 AM 24.1 °F 14.4 °F 17.1 °F 75% 29.98 in 10.0 mi WNW 9.2 mph 16.1 mph N/A   Overcast
1:56 AM 24.1 °F 14.4 °F 15.1 °F 69% 29.98 in 10.0 mi West 9.2 mph 18.4 mph N/A   Overcast
2:56 AM 24.1 °F 14.4 °F 16.0 °F 71% 29.98 in 10.0 mi WNW 9.2 mph - N/A   Overcast
3:09 AM 24.8 °F 15.3 °F 15.8 °F 69% 29.94 in 10.0 mi WNW 9.2 mph - N/A   Overcast
3:56 AM 24.1 °F 15.2 °F 16.0 °F 71% 29.98 in 10.0 mi WNW 8.1 mph - N/A   Overcast
4:56 AM 25.0 °F 16.3 °F 16.0 °F 69% 29.98 in 10.0 mi WNW 8.1 mph - N/A   Overcast
5:56 AM 25.0 °F 17.1 °F 16.0 °F 69% 29.99 in 10.0 mi West 6.9 mph - N/A   Overcast
6:56 AM 25.0 °F 17.1 °F 17.1 °F 72% 30.00 in 10.0 mi West 6.9 mph - N/A   Overcast
7:56 AM 25.0 °F 16.3 °F 17.1 °F 72% 30.00 in 10.0 mi WNW 8.1 mph - N/A   Overcast
8:56 AM 26.1 °F 16.8 °F 18.0 °F 71% 30.01 in 10.0 mi West 9.2 mph - N/A   Overcast
9:34 AM 28.4 °F 19.7 °F 17.6 °F 64% 29.97 in 10.0 mi NW 9.2 mph - N/A   Overcast
9:56 AM 28.0 °F 18.6 °F 17.1 °F 63% 30.01 in 10.0 mi WNW 10.4 mph - N/A   Overcast
10:56 AM 28.0 °F 18.1 °F 16.0 °F 61% 30.01 in 10.0 mi West 11.5 mph 17.3 mph N/A   Overcast
11:56 AM 32.0 °F 23.6 °F 18.0 °F 56% 30.01 in 10.0 mi WNW 10.4 mph - N/A   Overcast
12:34 PM 33.8 °F 24.3 °F 19.4 °F 56% 29.97 in 10.0 mi WNW 13.8 mph 18.4 mph N/A   Overcast
12:56 PM 35.1 °F 27.4 °F 19.0 °F 52% 30.00 in 10.0 mi NW 10.4 mph - N/A   Scattered Clouds
1:56 PM 35.1 °F 26.9 °F 19.0 °F 52% 30.00 in 10.0 mi WNW 11.5 mph 18.4 mph N/A   Scattered Clouds
2:56 PM 39.9 °F 34.5 °F 21.0 °F 47% 29.98 in 10.0 mi NW 8.1 mph - N/A   Mostly Cloudy
3:56 PM 39.9 °F 33.9 °F 19.9 °F 45% 29.97 in 10.0 mi NNW 9.2 mph 16.1 mph N/A   Partly Cloudy
4:56 PM 39.0 °F 33.4 °F 19.9 °F 46% 29.96 in 10.0 mi West 8.1 mph - N/A   Partly Cloudy
5:56 PM 37.0 °F 31.6 °F 19.9 °F 50% 29.97 in 10.0 mi WNW 6.9 mph - N/A   Scattered Clouds
6:56 PM 35.1 °F 27.4 °F 21.0 °F 57% 29.99 in 10.0 mi NW 10.4 mph - N/A   Partly Cloudy
7:56 PM 30.9 °F 21.7 °F 21.0 °F 67% 30.02 in 10.0 mi WNW 11.5 mph - N/A   Scattered Clouds
8:56 PM 28.9 °F 21.1 °F 21.0 °F 72% 30.04 in 10.0 mi West 8.1 mph - N/A   Clear
9:56 PM 28.0 °F 21.7 °F 19.9 °F 72% 30.05 in 10.0 mi West 5.8 mph - N/A   Clear
10:56 PM 26.1 °F 19.4 °F 19.0 °F 75% 30.04 in 10.0 mi WNW 5.8 mph - N/A   Clear